#timestamp,LO_Frequency,Hit 
1500746415.0,286047000.4,N
1500746415.9,286047000.4,N
1500746435.8,286047000.7,N
1500746455.6,286047000.8,N
1500746475.5,286047001.1,N
1500746495.3,286047000.4,N
1500746515.1,286046999.8,N
1500746535.9,286046999.8,N
1500746555.7,286047000.0,N
1500746575.5,286047000.3,N
1500746595.4,286046998.1,N
1500746615.2,286046999.9,N
1500746635.1,286047000.9,N
1500746636.0,286047000.9,N
1500746655.8,286047001.1,N
1500746675.6,286047000.5,N
1500746695.5,286047001.0,N
1500746715.3,286047000.3,N
1500746735.2,286046999.9,N
1500746755.9,286047002.5,N
1500746775.7,286046999.8,N
1500746795.6,286047002.8,N
1500746815.4,286046999.9,N
1500746835.2,286047000.4,N
1500746855.1,286046999.8,N
1500746856.0,286046999.8,N
1500746875.8,286047000.6,N
1500746895.7,286047000.2,N
1500746915.5,286047002.7,N
1500746935.3,286047002.1,N
1500746955.2,286047001.9,N
1500746975.0,286047001.6,N
1500746975.9,286047001.6,N
1500746995.8,286047002.4,N
1500747015.6,286047002.4,N
1500747035.4,286047002.3,N
1500747055.3,286047002.5,N
1500747075.1,286047001.8,N
1500747095.9,286047001.9,N
1500747115.7,286047002.0,N
1500747135.5,286047002.1,N
1500747155.4,286047002.5,N
1500747175.2,286047001.9,N
1500747195.0,286047001.8,N
1500747195.9,286047001.8,N
1500747215.8,286047002.1,N
1500747235.6,286047002.6,N
1500747255.5,286047001.4,N
1500747275.3,286047002.3,N
1500747295.1,286047001.8,N
1500747315.9,286047001.4,N
1500747335.7,286047001.6,N
1500747355.6,286047001.5,N
1500747375.4,286047001.7,N
1500747395.2,286047002.5,N
1500747415.1,286047002.4,N
1500747416.0,286047002.4,N
1500747435.8,286047002.1,N
1500747455.6,286047002.2,N
1500747475.5,286047002.6,N
1500747495.3,286047001.9,N
1500747515.2,286047001.9,N
1500747535.9,286047002.8,N
1500747555.7,286047002.0,N
1500747575.6,286047002.0,N
1500747595.4,286047002.0,N
1500747615.3,286047002.0,N
1500747635.1,286047001.5,N
1500747636.0,286047001.5,N
1500747655.8,286047004.1,N
1500747675.7,286047003.4,N
1500747695.5,286047003.6,N
1500747715.3,286047004.4,N
1500747735.2,286047001.9,N
1500747755.0,286047002.6,N
1500747755.9,286047002.6,N
1500747775.8,286047002.6,N
1500747795.6,286047002.6,N
1500747815.4,286047002.2,N
1500747835.3,286047004.3,N
1500747855.1,286047003.7,N
1500747875.9,286047004.4,N
1500747895.7,286047002.8,N
1500747915.5,286047002.8,N
1500747935.4,286047000.6,N
1500747955.2,286046998.3,N
1500747975.0,286046998.7,N
1500747976.0,286046998.7,N
1500747995.8,286047001.2,N
1500748015.6,286046998.2,N
1500748035.5,286046999.1,N
1500748055.3,286046999.3,N
1500748075.1,286046996.6,N
1500748095.9,286047011.9,N
1500748115.7,286047000.8,N
1500748135.6,286046998.6,N
1500748155.4,286046998.4,N
1500748175.2,286046999.4,N
1500748195.1,286046998.4,N
1500748196.0,286046998.4,N
1500748215.8,286046998.5,N
1500748235.7,286046998.1,N
1500748255.5,286046998.4,N
1500748275.3,286046998.5,N
1500748295.2,286046999.4,N
1500748315.0,286046997.0,N
1500748315.9,286046997.0,N
1500748335.8,286046997.5,N
1500748355.6,286046995.3,N
1500748375.4,286046995.7,N
1500748395.3,286046995.2,N
1500748415.1,286046996.3,N
1500748435.9,286046996.3,N
1500748455.7,286046993.4,N
1500748475.5,286046996.4,N
1500748495.4,286046996.3,N
1500748515.2,286046995.0,N
1500748535.0,286046996.2,N
1500748536.0,286046996.2,N
1500748555.8,286046996.1,N
1500748575.6,286046995.9,N
1500748595.5,286046996.2,N
1500748615.3,286046995.4,N
1500748635.1,286046998.0,N
1500748655.9,286046997.7,N
1500748675.7,286046994.9,N
1500748695.6,286046995.1,N
1500748715.4,286046995.3,N
1500748735.2,286046997.9,N
1500748755.1,286046995.4,N
1500748756.0,286046995.4,N
1500748775.8,286046995.2,N
1500748795.6,286046995.1,N
1500748815.5,286046995.1,N
1500748835.3,286046997.9,N
1500748855.2,286046995.1,N
1500748875.9,286046993.6,N
1500748895.7,286046994.4,N
1500748915.6,286046994.6,N
1500748935.4,286046993.9,N
1500748955.3,286046995.4,N
1500748975.1,286046994.9,N
1500748976.0,286046994.9,N
1500748995.8,286046998.0,N
1500749015.7,286046994.9,N
1500749035.5,286046998.0,N
1500749055.3,286046997.9,N
1500749075.2,286046997.2,N
1500749095.0,286046997.4,N
1500749095.9,286046997.4,N
1500749115.8,286046996.1,N
1500749135.6,286046996.4,N
1500749155.4,286046993.9,N
1500749175.3,286046994.5,N
1500749195.1,286046993.7,N
1500749215.9,286046994.3,N
1500749235.7,286046994.4,N
1500749255.5,286046994.7,N
1500749275.4,286046994.5,N
1500749295.2,286046994.7,N
1500749315.0,286046994.7,N
1500749316.0,286046994.7,N
1500749335.8,286046993.5,N
1500749355.6,286046993.3,N
1500749375.5,286046994.1,N
1500749395.3,286046994.3,N
1500749415.1,286046996.4,N
1500749435.9,286046993.3,N
1500749455.7,286046995.6,N
1500749475.6,286046995.8,N
1500749495.4,286046995.4,N
1500749515.2,286046995.2,N
1500749535.1,286046995.5,N
1500749536.0,286046995.5,N
1500749555.8,286046995.5,N
1500749575.7,286046995.4,N
1500749595.5,286046995.4,N
1500749615.3,286046997.9,N
1500749635.2,286046997.9,N
1500749655.0,286046998.0,N
1500749655.9,286046998.0,N
1500749675.8,286046995.2,N
1500749695.6,286046995.8,N
1500749715.4,286046995.0,N
1500749735.3,286046995.0,N
1500749755.1,286046995.3,N
1500749775.8,286046995.1,N
1500749795.7,286046994.9,N
1500749815.5,286046995.0,N
1500749835.4,286046998.0,N
1500749855.2,286046995.0,N
1500749875.0,286046994.9,N
1500749875.9,286046994.9,N
1500749895.8,286046998.0,N
1500749915.6,286046997.4,N
1500749935.5,286046996.9,N
1500749955.3,286046996.7,N
1500749975.1,286046996.5,N
1500749995.9,286046996.5,N
